Wind_Speed
13 13 13 12 12 12 12 13 13 14 14 14 14 14 14 14 14 14 14 14 14 14 15 16 16 16 16 15 15 15 16 16 15 15 16 17 17 18 19 18 18 18 19
14 14 14 14 13 13 13 13 14 14 15 15 15 14 14 15 14 15 15 14 14 14 15 16 16 16 15 15 14 15 15 16 16 16 17 17 18 18 19 19 19 19 19
14 15 15 14 13 14 14 14 15 15 15 15 15 14 14 14 14 15 15 14 14 14 15 15 16 16 15 16 16 15 15 16 17 18 17 17 18 18 18 18 18 18 18
15 15 16 16 15 14 14 15 15 15 15 15 14 14 14 14 14 15 14 15 15 14 15 15 15 15 15 15 16 15 15 16 17 18 18 17 17 18 18 18 18 18 18
15 15 16 16 16 15 16 15 14 14 14 14 14 14 14 15 15 15 15 15 15 15 16 16 16 16 16 15 15 14 15 15 16 17 17 17 17 17 17 18 18 18 18
15 15 15 16 15 16 16 16 15 15 15 15 14 14 15 16 16 15 15 15 15 16 16 16 16 16 16 16 15 15 15 15 16 16 16 17 17 17 17 17 17 18 19
15 15 16 15 15 15 16 16 16 15 15 15 15 15 15 16 16 16 15 15 15 15 16 16 16 16 16 16 16 16 16 16 15 16 16 17 18 18 18 18 18 18 18
16 17 16 17 16 15 16 16 16 16 16 15 15 15 15 15 15 15 14 14 15 15 15 15 16 16 16 16 16 16 16 16 16 16 16 17 17 18 18 18 18 18 18
15 16 17 16 16 16 16 16 16 16 16 15 15 15 15 15 14 14 14 15 15 15 15 15 16 16 16 16 16 16 16 15 15 16 16 17 17 17 18 18 17 17 17
16 17 16 16 16 15 15 16 16 16 16 16 16 16 16 15 15 15 15 15 15 15 15 16 16 16 16 16 16 15 15 15 15 15 16 16 16 17 17 17 17 17 17
17 17 16 17 17 16 16 16 16 16 17 16 16 16 16 15 15 15 15 16 16 16 16 15 16 16 16 15 15 14 14 15 15 15 15 15 16 16 17 18 18 18 17
18 17 16 16 16 16 16 16 15 15 16 16 15 14 15 15 15 16 16 16 16 16 16 16 16 17 16 15 15 14 14 15 15 15 16 16 16 16 17 17 18 18 17
17 16 16 16 16 15 16 16 16 15 15 15 15 14 15 15 16 16 16 17 17 17 17 17 17 17 16 16 15 15 15 16 16 16 16 17 17 17 17 17 17 17 18
16 16 16 15 14 14 15 15 15 15 15 15 15 15 15 16 16 16 17 17 17 17 17 17 18 18 18 18 17 17 17 17 17 17 17 18 18 18 19 18 18 18 18
16 17 16 15 15 16 16 15 15 15 15 15 15 15 15 15 16 17 17 17 17 17 18 18 18 18 18 19 19 19 19 19 19 18 19 19 19 19 19 19 19 19 19
16 17 17 16 16 16 16 15 15 15 15 15 15 15 15 16 17 17 17 18 18 18 19 19 19 19 19 19 20 20 19 20 20 20 20 20 20 19 20 20 20 20 20
17 16 16 16 16 16 16 16 16 15 15 15 16 16 16 17 18 18 18 19 19 20 20 20 20 20 20 20 20 20 20 21 21 21 21 20 20 20 20 20 21 21 22
17 17 17 17 18 18 17 16 16 16 16 16 16 16 16 17 18 18 19 20 20 21 21 21 21 21 21 21 21 20 20 20 20 20 20 20 20 21 20 21 22 22 22
18 17 18 19 19 18 17 18 17 17 17 18 16 16 17 18 18 18 19 20 20 20 20 21 21 21 21 21 21 21 20 20 19 19 19 20 20 20 20 21 21 22 22
18 18 19 19 19 19 18 18 19 18 18 17 17 18 19 19 19 19 19 20 20 20 20 20 21 22 21 21 21 20 20 19 19 19 19 19 19 19 20 21 21 22 22
19 19 19 19 19 19 19 19 19 19 19 19 20 19 19 19 19 19 20 20 20 20 20 20 21 20 20 20 19 19 19 19 20 20 20 19 19 19 20 20 21 21 21
20 19 18 18 19 19 19 19 18 18 19 19 19 19 20 19 19 19 20 21 21 21 21 20 19 19 19 19 19 19 19 19 19 19 19 19 19 19 20 20 20 21 21
19 19 19 19 19 19 20 20 20 20 20 20 20 20 20 20 20 20 21 21 21 21 21 20 20 19 20 20 20 19 18 18 18 18 18 19 19 19 19 20 20 21 21
19 20 20 20 20 21 21 21 21 21 20 20 20 20 20 21 21 21 21 21 21 21 21 21 21 21 21 20 20 20 19 19 19 19 19 20 20 20 20 20 20 21 21
20 20 20 20 21 21 22 22 22 21 21 20 21 21 21 21 21 20 21 21 21 21 21 21 21 20 20 20 20 20 20 20 20 19 19 20 20 20 19 19 20 20 21
20 20 20 21 21 21 21 21 21 21 22 22 21 20 20 21 21 21 21 20 21 22 22 22 21 21 21 21 21 21 21 21 20 20 20 20 20 20 20 20 20 20 21
Wind_Direction
285 287 290 293 292 293 294 293 294 295 291 290 289 289 286 282 282 283 282 282 284 289 292 294 294 293 288 283 281 274 271 268 266 264 262 264 265 264 261 260 260 260 260
274 282 287 289 290 291 290 290 292 294 290 287 286 286 284 281 283 286 284 284 286 289 291 293 292 292 289 283 279 275 269 267 266 265 262 264 266 267 266 264 261 260 260
276 280 283 286 288 288 288 287 288 289 287 284 282 282 284 284 285 289 286 284 287 289 291 290 290 288 287 283 278 275 269 268 267 266 265 265 265 267 267 263 263 261 259
282 285 284 284 285 288 286 286 285 284 285 283 281 280 283 285 285 288 286 284 284 286 288 290 291 288 286 284 278 274 272 271 270 268 266 265 265 264 264 264 266 266 262
285 287 285 283 286 288 287 288 287 284 283 281 279 283 283 282 281 283 285 284 283 285 288 289 289 289 286 282 277 273 273 272 271 269 267 264 263 263 265 265 265 265 265
285 286 288 287 286 289 288 288 288 285 279 278 278 281 281 280 281 281 284 284 284 286 288 290 289 289 285 280 276 274 274 274 272 271 268 264 263 262 263 266 267 266 264
281 286 288 289 288 287 287 287 285 283 281 278 276 278 279 279 281 282 283 284 285 287 289 290 291 291 288 281 277 276 276 274 271 270 266 265 264 262 262 264 267 266 266
282 287 289 290 288 285 283 283 283 280 279 278 276 277 276 276 277 279 282 285 286 286 288 290 292 293 290 284 279 277 275 273 271 270 268 266 264 262 263 265 266 266 266
281 284 288 287 285 283 282 282 284 277 275 275 276 278 275 272 273 277 280 282 283 284 286 290 292 293 292 287 284 278 274 271 271 271 270 269 264 264 264 265 266 267 267
277 284 287 287 284 281 281 281 281 278 278 276 277 277 275 273 272 275 278 280 281 283 285 288 290 291 291 290 287 281 277 272 273 273 270 269 268 267 266 266 267 268 268
272 276 283 285 281 279 279 280 280 279 277 276 276 275 272 273 275 278 279 279 280 283 285 286 290 291 291 290 286 284 281 275 273 273 272 271 272 271 269 268 268 269 271
271 272 273 276 277 277 278 277 280 282 279 278 275 273 271 271 275 279 280 281 283 283 283 285 287 289 288 286 283 284 283 279 276 274 272 272 273 274 273 270 270 270 270
272 274 274 275 275 275 276 275 277 280 281 278 274 272 272 273 277 280 281 283 285 285 284 284 286 286 285 284 282 284 283 281 280 278 274 272 271 271 272 271 272 273 275
272 275 277 275 272 273 279 280 280 277 277 274 272 273 274 275 277 281 282 283 285 286 286 287 287 285 285 284 281 282 284 282 281 279 277 275 273 271 270 269 270 273 275
271 274 275 269 269 272 277 281 278 276 276 273 271 273 274 277 280 282 283 284 285 286 287 289 287 286 284 283 283 282 281 280 279 278 278 277 276 274 271 269 269 272 276
267 270 271 269 267 271 273 277 275 276 275 272 270 274 277 281 283 283 283 282 284 285 286 286 286 286 287 286 284 282 280 278 277 277 277 277 276 274 271 269 270 272 275
263 268 269 269 266 266 267 269 271 272 273 272 272 273 276 279 282 286 284 283 284 285 287 288 287 288 288 286 284 282 281 280 278 277 277 276 275 274 272 270 270 272 275
264 269 270 268 265 263 262 268 266 268 268 270 273 275 275 277 280 284 285 285 286 286 286 287 287 287 288 288 284 284 284 282 279 278 276 275 274 272 271 270 270 272 275
266 265 267 267 264 264 265 267 265 269 268 270 273 273 275 279 283 285 286 287 288 289 289 289 288 287 287 287 287 285 284 282 280 278 276 275 273 272 271 271 273 274 275
266 265 268 268 266 265 268 268 267 270 271 271 272 272 275 278 281 283 285 286 288 291 293 293 292 290 288 288 286 284 283 281 280 278 277 275 273 272 271 272 273 274 276
268 267 267 266 268 269 270 269 268 270 271 273 273 272 273 276 279 281 283 285 287 289 292 293 293 292 291 289 286 283 282 281 280 278 276 275 275 272 272 272 273 276 277
271 267 266 267 268 269 270 270 270 270 272 273 273 271 273 277 280 283 285 285 286 288 289 290 290 290 290 289 287 285 283 282 280 278 278 278 277 274 275 274 275 277 277
271 266 265 267 267 268 269 270 271 272 273 271 273 275 277 278 281 284 285 285 285 285 287 288 287 287 288 288 287 285 283 283 281 279 278 279 279 276 276 275 276 278 279
270 267 266 267 268 269 270 270 270 272 271 271 274 276 277 280 283 285 285 284 283 284 286 285 283 285 286 285 285 283 283 284 283 281 280 280 281 278 279 278 277 278 281
269 267 266 267 269 271 271 269 270 270 271 275 277 277 278 280 281 282 285 285 284 284 284 281 280 280 283 284 284 283 280 280 279 279 280 281 281 280 279 281 281 282 282
267 268 268 269 272 272 270 270 268 267 269 273 275 275 279 281 282 282 284 284 284 285 283 282 279 279 280 281 280 281 280 278 277 277 278 278 279 280 281 283 285 287 287
Height
5853 5852 5852 5852 5852 5852 5851 5851 5850 5848 5847 5846 5845 5844 5844 5844 5843 5842 5842 5841 5840 5839 5838 5837 5836 5834 5832 5831 5831 5830 5830 5830 5830 5831 5831 5831 5831 5831 5832 5832 5832 5832 5832
5849 5848 5849 5849 5849 5848 5848 5847 5846 5845 5844 5842 5842 5841 5840 5839 5839 5839 5838 5837 5836 5835 5834 5833 5831 5830 5828 5828 5827 5827 5826 5826 5826 5826 5826 5827 5827 5827 5827 5827 5827 5827 5827
5846 5846 5846 5846 5845 5844 5844 5843 5842 5841 5840 5839 5839 5838 5837 5836 5836 5835 5834 5833 5832 5831 5830 5829 5827 5826 5825 5824 5823 5823 5822 5822 5822 5822 5822 5822 5822 5822 5822 5822 5822 5822 5822
5843 5843 5842 5841 5841 5840 5840 5839 5838 5837 5836 5835 5835 5834 5834 5832 5832 5832 5830 5829 5828 5827 5826 5825 5823 5822 5820 5819 5819 5818 5818 5818 5818 5817 5817 5818 5817 5817 5817 5817 5817 5816 5817
5839 5838 5838 5837 5836 5836 5836 5835 5834 5833 5832 5831 5831 5830 5829 5829 5828 5828 5827 5826 5824 5823 5822 5821 5819 5818 5816 5815 5815 5814 5814 5813 5813 5813 5812 5812 5812 5812 5812 5812 5812 5812 5811
5835 5834 5833 5832 5832 5832 5832 5831 5830 5829 5828 5828 5827 5826 5826 5825 5824 5823 5823 5822 5820 5819 5818 5816 5815 5814 5812 5811 5810 5810 5809 5809 5808 5808 5808 5807 5807 5807 5807 5807 5807 5807 5807
5832 5831 5830 5829 5828 5828 5828 5827 5826 5825 5824 5823 5823 5822 5822 5821 5820 5819 5819 5817 5816 5815 5814 5812 5811 5809 5808 5807 5806 5805 5805 5804 5803 5803 5803 5802 5802 5802 5802 5802 5801 5801 5801
5827 5826 5826 5825 5824 5824 5823 5822 5821 5821 5820 5819 5818 5818 5817 5817 5816 5815 5814 5813 5812 5811 5809 5808 5807 5805 5804 5802 5801 5801 5800 5799 5799 5798 5798 5797 5797 5797 5796 5796 5796 5796 5796
5822 5821 5820 5820 5820 5819 5818 5817 5817 5816 5815 5814 5813 5813 5813 5812 5811 5811 5810 5809 5808 5807 5805 5804 5802 5801 5799 5798 5797 5796 5795 5795 5794 5793 5793 5792 5791 5791 5791 5791 5791 5791 5791
5817 5816 5816 5816 5815 5814 5813 5813 5812 5811 5810 5809 5809 5809 5808 5807 5807 5807 5806 5805 5804 5803 5801 5800 5798 5797 5795 5794 5792 5791 5790 5790 5789 5788 5787 5787 5786 5786 5785 5785 5785 5785 5785
5811 5811 5811 5811 5810 5809 5809 5808 5807 5807 5806 5804 5804 5804 5803 5803 5803 5802 5801 5800 5799 5798 5797 5795 5794 5792 5791 5789 5788 5787 5786 5785 5784 5783 5782 5782 5781 5781 5780 5780 5780 5779 5779
5806 5806 5806 5805 5805 5804 5804 5804 5803 5802 5801 5800 5799 5799 5798 5798 5798 5797 5796 5795 5794 5793 5792 5791 5789 5788 5786 5785 5784 5782 5781 5780 5779 5778 5778 5777 5776 5776 5775 5775 5774 5774 5774
5800 5800 5799 5799 5799 5799 5799 5798 5798 5798 5797 5796 5795 5795 5794 5794 5793 5792 5791 5790 5789 5788 5787 5785 5784 5783 5781 5780 5779 5778 5776 5775 5774 5773 5772 5772 5771 5771 5770 5769 5769 5768 5768
5795 5795 5794 5794 5794 5794 5794 5793 5793 5793 5792 5791 5791 5790 5790 5789 5789 5788 5787 5786 5784 5783 5782 5780 5778 5778 5776 5775 5774 5773 5771 5770 5769 5768 5767 5766 5765 5765 5764 5764 5764 5763 5763
5789 5789 5789 5788 5788 5789 5789 5788 5788 5788 5787 5787 5786 5786 5785 5784 5784 5783 5782 5780 5779 5778 5777 5775 5774 5772 5771 5769 5768 5767 5765 5764 5763 5762 5761 5760 5759 5759 5758 5758 5758 5757 5757
5784 5784 5783 5783 5783 5784 5784 5784 5783 5783 5782 5782 5781 5781 5780 5779 5778 5777 5776 5775 5774 5773 5771 5770 5768 5767 5765 5763 5762 5761 5759 5758 5757 5756 5755 5754 5753 5752 5752 5752 5751 5751 5751
5778 5778 5778 5777 5777 5777 5777 5778 5778 5778 5777 5777 5776 5775 5774 5774 5773 5772 5771 5769 5768 5767 5766 5764 5763 5761 5759 5757 5755 5754 5753 5752 5750 5749 5748 5747 5747 5746 5745 5745 5745 5744 5744
5772 5772 5771 5771 5772 5772 5772 5772 5772 5772 5772 5771 5771 5770 5769 5768 5767 5766 5765 5763 5762 5761 5759 5758 5757 5755 5753 5751 5749 5747 5746 5745 5744 5742 5742 5741 5740 5739 5739 5738 5738 5738 5737
5766 5766 5766 5766 5766 5766 5766 5766 5767 5766 5766 5765 5764 5764 5764 5763 5762 5760 5759 5757 5756 5755 5753 5752 5750 5748 5746 5744 5742 5740 5739 5738 5737 5736 5735 5734 5734 5733 5732 5732 5732 5731 5730
5760 5760 5760 5760 5760 5760 5760 5760 5760 5760 5760 5759 5759 5758 5757 5757 5756 5755 5753 5751 5750 5748 5747 5745 5743 5741 5739 5738 5736 5734 5733 5732 5730 5730 5729 5728 5727 5727 5726 5725 5725 5725 5724
5753 5753 5753 5754 5754 5753 5753 5752 5753 5754 5753 5753 5752 5752 5751 5750 5749 5748 5747 5745 5744 5742 5740 5739 5737 5735 5733 5731 5730 5728 5727 5726 5725 5724 5723 5722 5721 5720 5720 5719 5719 5718 5717
5747 5746 5747 5747 5747 5747 5747 5747 5746 5747 5747 5746 5745 5745 5744 5743 5742 5741 5740 5739 5737 5736 5734 5733 5731 5729 5727 5726 5724 5722 5721 5720 5719 5718 5717 5716 5715 5715 5714 5713 5712 5711 5710
5740 5740 5741 5741 5741 5741 5741 5741 5741 5741 5740 5740 5739 5738 5738 5737 5735 5734 5733 5732 5730 5729 5728 5726 5725 5723 5721 5720 5718 5717 5715 5714 5713 5712 5711 5711 5710 5709 5708 5707 5706 5705 5704
5733 5734 5734 5735 5735 5735 5735 5735 5735 5734 5734 5733 5732 5732 5731 5730 5729 5728 5726 5725 5723 5722 5721 5719 5718 5716 5715 5713 5712 5711 5710 5709 5707 5706 5706 5705 5704 5703 5702 5701 5700 5699 5697
5727 5727 5728 5728 5728 5728 5728 5728 5728 5728 5727 5727 5726 5726 5725 5723 5722 5721 5719 5718 5716 5715 5714 5712 5711 5710 5709 5707 5705 5704 5703 5702 5701 5700 5699 5699 5698 5697 5696 5695 5693 5692 5691
5720 5721 5721 5721 5721 5721 5721 5720 5720 5721 5721 5721 5720 5719 5718 5717 5715 5714 5712 5710 5709 5708 5706 5705 5704 5703 5702 5700 5699 5697 5697 5696 5695 5694 5693 5692 5692 5691 5690 5689 5688 5686 5684